Hourly Data Report for July 19, 2021

CARIBOU POINT (AUT)
NOVA SCOTIA
Current Station Operator: ECCC - MSC

45°46'00.000" N
62°41'00.000" W
2.40 m
8200774
71415
WBK

Download Data

Hourly Data (July 2021)
Hourly Data Report for July 19, 2021
TIME
LST
Temp Definition
°C
Dew Point Definition
°C
Rel Hum Definition
%
Precip. Amount Definition
mm

Wind Dir Definition
10's deg

Wind Spd Definition
km/h
Visibility Definition
km
Stn Press Definition
kPa
Hmdx Definition


Wind Chill Definition


Weather Definition


00:00 18.8 17.2 90 0.0 17 8   101.66     LegendNANA
01:00 18.6 17.6 94 0.0 15 9   101.60     LegendNANA
02:00 18.4 17.3 94 0.0 13 5   101.59     LegendNANA
03:00 18.5 17.7 95 0.0 18 18   101.57     LegendNANA
04:00 17.6 16.6 94 3.8 16 16   101.53     LegendNANA
05:00 17.7 16.7 94 3.7 16 15   101.53     LegendNANA
06:00 17.6 16.8 95 0.0 11 19   101.53     LegendNANA
07:00 17.6 16.9 96 0.0 11 15   101.55     LegendNANA
08:00 17.8 17.2 96 0.0 13 12   101.55     LegendNANA
09:00 18.3 17.7 96 0.0 11 12   101.49     LegendNANA
10:00 19.3 18.5 95 0.0 10 11   101.46     LegendNANA
11:00 19.3 18.1 93 0.2 8 9   101.42     LegendNANA
12:00 20.8 19.3 91 0.0 9 12   101.35 28   LegendNANA
13:00 20.9 19.2 90 0.0 8 12   101.33 28   LegendNANA
14:00 20.6 19.1 91 0.0 11 18   101.28 27   LegendNANA
15:00 20.4 19.0 92 0.0 10 15   101.24 27   LegendNANA
16:00 21.1 20.5 96 4.9 7 16   101.22 29   LegendNANA
17:00 20.1 19.2 94 0.0 14 11   101.18 27   LegendNANA
18:00 20.7 19.7 94 0.0 15 14   101.17 28   LegendNANA
19:00 22.4 21.4 95 0.0 20 8   101.16 31   LegendNANA
20:00 22.2 20.9 93 0.0 20 10   101.13 31   LegendNANA
21:00 22.1 20.9 93 0.0 20 9   101.15 30   LegendNANA
22:00 21.8 20.6 93 0.0 20 11   101.11 30   LegendNANA
23:00 21.6 20.4 93 0.0 20 14   101.12 30   LegendNANA

Notes on Data Quality.

Legend

  • E = Estimated
  • M = Missing
  • NA = Not Available*
  • [empty] = Indicates an unobserved value
Date modified: